Regional Weather Roundup
Issued by NWS

Home | Current Version | Previous Version | Text Only | Print | Product List | Glossary On
Versions: 1 2 3 4 5 6 7 8 9 10 11 12 13 14 15 16 17 18 19 20 21 22 23 24 25 26 27 28 29 30 31 32 33 34 35 36 37 38 39 40 41 42 43 44 45 46 47 48 49 50
000
ASUS45 KREV 210710
RWRNV
NEVADA REGIONAL WEATHER ROUNDUP
NATIONAL WEATHER SERVICE RENO NV
1200 AM PDT SAT OCT 21 2017

NOTE: "FAIR" INDICATES FEW OR NO CLOUDS BELOW 12,000 FEET WITH NO
SIGNIFICANT WEATHER AND/OR OBSTRUCTIONS TO VISIBILITY.

NVZ001-003-004-210800-
WESTERN NEVADA

CITY           SKY/WX    TMP DP  RH WIND       PRES   REMARKS
RENO           CLEAR     40  29  64 S5        30.15R
CARSON CITY    FAIR      36  27  69 CALM      30.15S
MINDEN         FAIR      32  27  80 CALM      30.15R
SLIDE MTN        N/A     19  19 100 NW2         N/A
FALLON         CLEAR     37  22  54 MISG      30.13R
LOVELOCK       CLEAR     38  26  62 N7        30.12R
HAWTHORNE      MOCLDY    43  23  45 CALM      30.14R
$$

NVZ002-CAZ072-073-210800-
NORTHERN AND CENTRAL SIERRA

CITY           SKY/WX    TMP DP  RH WIND       PRES   REMARKS
S. LAKE TAHOE  PTCLDY    30  28  92 S5        30.14R
TRUCKEE        CLEAR     28  28 100 CALM      30.15S
SQUAW VLY 8000 NOT AVBL
SUSANVILLE     CLEAR     34  30  86 S5        30.14S
BLUE CANYON    CLEAR     36  28  73 NE6       30.16R
MAMMOTH LAKES  FAIR      32  18  57 W10       30.11R
BRIDGEPORT     FAIR      24  17  74 CALM      30.12R
$$

NVZ030-031-036-210800-
NORTHERN NEVADA

CITY           SKY/WX    TMP DP  RH WIND       PRES   REMARKS
ELKO           MOCLDY    30  21  69 CALM      30.08R
WINNEMUCCA     PTCLDY    30  24  78 W6        30.10S
WENDOVER       PTCLDY    43  22  43 NW6       30.05R
$$

NVZ035-037-210800-
CENTRAL NEVADA

CITY           SKY/WX    TMP DP  RH WIND       PRES   REMARKS
ELY            PTCLDY    25  12  58 CALM      30.09R
EUREKA           N/A     29  16  58 S3        30.09R
$$

NVZ013-014-210800-
SOUTH CENTRAL NEVADA

CITY           SKY/WX    TMP DP  RH WIND       PRES   REMARKS
TONOPAH        PTCLDY    36  15  42 CALM      30.10R
$$

NVZ017-020-022-210800-
SOUTHERN NEVADA

CITY           SKY/WX    TMP DP  RH WIND       PRES   REMARKS
LAS VEGAS      CLEAR     69   7   9 NW15      29.87R
N. LAS VEGAS   CLEAR     67   2   7 N15       29.87R
NELLIS AFB     CLEAR     67   6   9 N23       29.88R
HENDERSON      CLEAR     65   8  10 NE8       29.91R
MERCURY        CLEAR     57   7  13 NE14      29.96R
$$



USA.gov is the U.S. government's official web portal to all federal, state and local government web resources and services.